STARLINK-5366, 55499

Orbit data source: Space-Track

STARLINK-5366, 55499 is a payload satellite owned by SpaceX/Seattle (US) in LEO that was launched on Thu, 02 Feb 2023 UTC via an FALCON 9 launch vehicle from the Air Force Eastern Test Range (AFETR). Payload-class satellites include a variety of spacecraft equipped with specific instruments for various scientific and technological missions. These include communications satellites like Starlink; space stations such as the ISS; scientific satellites like the Hubble; Earth observation satellites from companies like Planet Labs, Umbra, and HawkEye 360; GPS; miniature CubeSats for education and research; and military/defense satellites.

Loading next visibility...
Identifier
55499, 2023-015BC
Orbit
LEO
Country
Flag of USUS
Related business
Manufacturer
SpaceX/Seattle
Mission
Operational Commercial Communications
Bus & Motor
STARLINK, Unknown motor
Mass
305 kg wet, ~290 kg dry
Launch date (UTC)
2023-02-02 (3 years ago)
Launch vehicle
FALCON 9
Launch site
Air Force Eastern Test Range (AFETR)
Object type
Payload
Rocket body
Debris
Shape & HBR
Box + 1 Pan, 10.1 m
Radar Cross Section
13.562 m², Large (>1 m²)

Expand to show TLE details & history
Last TLE update: 4 hours ago

TLE from 4 hours ago
0 STARLINK-5366
1 55499U 23015BC  26132.86383498  .00000092  00000-0  12854-4 0  9991
2 55499  43.0046 336.9773 0000994 263.4120  96.6618 15.27577408181168
Epoch: 2026-05-12T20:43Z
TLE epoch observation values (Epoch: 2026-05-12T20:43:55.342Z)
Latitude
-0.00005°
Longitude
155.36456°
Altitude
482.912 km
Speed
7.626 km/s
True Right ascension
22h 27m 54s
True Declination
0° 00' 00"
Sunlit
Object was in daylight at epoch
Visualization orbit readout
Latitude
Unknown
Longitude
Unknown
Altitude
Unknown
Speed
Unknown
Apparent Right ascension
Unknown
Apparent Declination
Unknown
Sunlit
N/A
Visualization observer readout
Local Sidereal Time
09:31:23
Azimuth
Unknown
Elevation
Unknown
Doppler factor
Unknown
Orbital elements
Apogee altitude
485.683 km
Perigee altitude
484.319 km
Semi-major axis
6,863.138 km
Eccentricity
0.0001
Inclination
43.0046°
RAAN
336.9773°
Arg. of periapsis
263.412°
True anomaly
96.67311°
Mean anomaly
96.6618°
Eccentric anomaly
96.66746°
Mean motion
3.81732 °/min
Orbital period
94.31 mins
BSTAR
0.000012854
Loading maneuver chart data...
Computing Atmospheric mass density...
Loading historical data...
Loading historical data...
Loading historical data...
Loading historical data...
Loading historical data...
Loading historical data...
Loading historical data...

Documentation

Showing up to 5 results
|